TimeEDT,TemperatureF,Dew PointF,Humidity,Sea Level PressureIn,VisibilityMPH,Wind Direction,Wind SpeedMPH,Gust SpeedMPH,PrecipitationIn,Events,Conditions,WindDirDegrees,DateUTC
12:53 AM,30.0,21.9,72,30.12,10.0,NNW,3.5,-,N/A,,Partly Cloudy,330,2013-03-30 04:53:00
1:53 AM,30.9,21.9,69,30.12,10.0,Calm,Calm,-,N/A,,Clear,0,2013-03-30 05:53:00
2:53 AM,28.0,21.0,75,30.12,10.0,Calm,Calm,-,N/A,,Clear,0,2013-03-30 06:53:00
3:53 AM,30.0,21.9,72,30.12,10.0,NW,5.8,-,N/A,,Clear,320,2013-03-30 07:53:00
4:53 AM,30.9,25.0,79,30.11,10.0,NNW,6.9,-,N/A,,Clear,330,2013-03-30 08:53:00
5:53 AM,30.9,26.1,82,30.12,10.0,Calm,Calm,-,N/A,,Clear,0,2013-03-30 09:53:00
6:53 AM,25.0,19.9,81,30.14,10.0,Calm,Calm,-,N/A,,Clear,0,2013-03-30 10:53:00
7:53 AM,34.0,30.0,85,30.15,10.0,Calm,Calm,-,N/A,,Clear,0,2013-03-30 11:53:00
8:53 AM,46.0,30.0,54,30.15,10.0,NNW,10.4,-,N/A,,Clear,330,2013-03-30 12:53:00
9:53 AM,48.0,28.0,46,30.15,10.0,NW,9.2,18.4,N/A,,Clear,310,2013-03-30 13:53:00
10:53 AM,50.0,27.0,41,30.15,10.0,NNW,9.2,-,N/A,,Clear,340,2013-03-30 14:53:00
11:53 AM,52.0,23.0,32,30.14,10.0,NNW,10.4,-,N/A,,Clear,330,2013-03-30 15:53:00
12:53 PM,53.1,21.9,30,30.13,10.0,NW,11.5,19.6,N/A,,Clear,320,2013-03-30 16:53:00
1:53 PM,55.0,21.0,27,30.11,10.0,West,11.5,23.0,N/A,,Partly Cloudy,280,2013-03-30 17:53:00
2:53 PM,55.0,19.0,24,30.09,10.0,Variable,5.8,19.6,N/A,,Partly Cloudy,0,2013-03-30 18:53:00
3:53 PM,57.0,18.0,22,30.09,10.0,WSW,12.7,-,N/A,,Clear,250,2013-03-30 19:53:00
4:53 PM,53.1,27.0,37,30.08,10.0,SW,9.2,-,N/A,,Scattered Clouds,220,2013-03-30 20:53:00
5:53 PM,51.1,28.0,41,30.09,10.0,SW,9.2,-,N/A,,Partly Cloudy,220,2013-03-30 21:53:00
6:53 PM,46.9,28.9,50,30.11,10.0,SW,15.0,23.0,N/A,,Clear,230,2013-03-30 22:53:00
7:53 PM,45.0,30.9,58,30.12,10.0,WSW,12.7,-,N/A,,Clear,240,2013-03-30 23:53:00
8:53 PM,44.1,30.9,60,30.14,10.0,SW,5.8,-,N/A,,Clear,220,2013-03-31 00:53:00
9:53 PM,36.0,27.0,70,30.14,10.0,Calm,Calm,-,N/A,,Clear,0,2013-03-31 01:53:00
10:53 PM,30.9,23.0,72,30.14,10.0,Calm,Calm,-,N/A,,Clear,0,2013-03-31 02:53:00
11:53 PM,28.0,21.0,75,30.15,10.0,Calm,Calm,-,N/A,,Clear,0,2013-03-31 03:53:00